AAL3262 KMSP-KBZN

Flight info

Callsign AAL3262
Flight time 2h 10m
Altitude 38000
Route LEINY6 LEINY CREKK POWDA2
Aircraft A20N/M-SDE2E3FGHIRWXY/LB1

Departure

Time 2026-04-21 23:00
Airport Minneapolis–Saint Paul International Airport / Wold–Chamberlain Field (KMSP)

Arrival

Time 2026-04-22 01:11
Airport Bozeman Yellowstone International Airport (KBZN)
Time Latitude Longitude Altitude Speed Heading
2026-04-21 22:34 44.88517 -93.21357 831 ft 0 kts 57°
2026-04-21 22:51 44.88508 -93.21377 830 ft 4 kts 57°
2026-04-21 22:51 44.88463 -93.21447 834 ft 10 kts 351°
2026-04-21 22:52 44.88445 -93.21418 830 ft 0 kts 293°
2026-04-21 22:55 44.88449 -93.21430 839 ft 5 kts 293°
2026-04-21 22:56 44.88464 -93.21481 836 ft 6 kts 293°
2026-04-21 22:56 44.88481 -93.21536 843 ft 8 kts 293°
2026-04-21 22:56 44.88507 -93.21653 836 ft 16 kts 262°
2026-04-21 22:56 44.88411 -93.21807 840 ft 27 kts 225°
2026-04-21 22:57 44.88294 -93.21929 836 ft 8 kts 182°
2026-04-21 22:57 44.88226 -93.21834 834 ft 20 kts 118°
2026-04-21 22:57 44.88140 -93.21643 833 ft 25 kts 121°
2026-04-21 22:57 44.88045 -93.21415 827 ft 29 kts 120°
2026-04-21 22:58 44.87941 -93.21166 832 ft 30 kts 121°
2026-04-21 22:58 44.87826 -93.20907 829 ft 32 kts 121°
2026-04-21 22:58 44.87707 -93.20624 829 ft 35 kts 122°
2026-04-21 22:58 44.87576 -93.20341 827 ft 31 kts 120°
2026-04-21 22:59 44.87482 -93.20119 825 ft 15 kts 129°
2026-04-21 22:59 44.87394 -93.20126 826 ft 16 kts 240°
2026-04-21 22:59 44.87407 -93.20253 822 ft 0 kts 297°
2026-04-21 22:59 44.87413 -93.20270 822 ft 4 kts 297°
2026-04-21 23:00 44.87519 -93.20508 825 ft 62 kts 302°
2026-04-21 23:00 44.87854 -93.21263 833 ft 117 kts 301°
2026-04-21 23:00 44.88364 -93.22396 1017 ft 144 kts 304°
2026-04-21 23:00 44.88878 -93.23531 1629 ft 136 kts 302°
2026-04-21 23:01 44.89476 -93.24720 2018 ft 166 kts 298°
2026-04-21 23:01 44.89904 -93.26188 2850 ft 151 kts 251°
2026-04-21 23:01 44.89375 -93.27030 4087 ft 104 kts 185°
2026-04-21 23:01 44.88581 -93.27218 4402 ft 142 kts 223°
2026-04-21 23:02 44.88247 -93.28568 5097 ft 159 kts 267°
2026-04-21 23:02 44.88639 -93.30050 6168 ft 166 kts 301°
2026-04-21 23:02 44.89398 -93.31362 6813 ft 187 kts 291°
2026-04-21 23:02 44.89704 -93.33258 7274 ft 214 kts 272°
2026-04-21 23:03 44.89725 -93.35465 7866 ft 236 kts 269°
2026-04-21 23:03 44.89741 -93.37865 8654 ft 249 kts 272°
2026-04-21 23:03 44.89828 -93.40312 9783 ft 251 kts 275°
2026-04-21 23:03 44.89974 -93.42805 10640 ft 263 kts 276°
2026-04-21 23:04 44.90170 -93.45487 11105 ft 286 kts 277°
2026-04-21 23:04 44.90397 -93.48388 11474 ft 306 kts 277°
2026-04-21 23:04 44.90630 -93.51325 12231 ft 311 kts 277°
2026-04-21 23:04 44.90877 -93.54460 13057 ft 317 kts 277°
2026-04-21 23:05 44.91118 -93.57532 13836 ft 321 kts 277°
2026-04-21 23:05 44.91364 -93.60677 14629 ft 323 kts 277°
2026-04-21 23:05 44.91609 -93.63834 15466 ft 324 kts 277°
2026-04-21 23:05 44.91806 -93.67013 16233 ft 327 kts 275°
2026-04-21 23:06 44.91951 -93.70233 16994 ft 330 kts 275°
2026-04-21 23:06 44.92087 -93.73471 17759 ft 332 kts 275°
2026-04-21 23:06 44.92228 -93.76742 18492 ft 334 kts 275°
2026-04-21 23:06 44.92376 -93.80030 19146 ft 337 kts 276°
2026-04-21 23:07 44.92528 -93.83341 19802 ft 339 kts 276°
2026-04-21 23:07 44.92682 -93.86677 20436 ft 342 kts 276°
2026-04-21 23:07 44.92837 -93.90008 21070 ft 345 kts 276°
2026-04-21 23:07 44.92993 -93.93395 21683 ft 348 kts 276°
2026-04-21 23:08 44.93149 -93.96818 22296 ft 350 kts 276°
2026-04-21 23:08 44.93304 -94.00263 22919 ft 353 kts 276°
2026-04-21 23:08 44.93461 -94.03741 23512 ft 356 kts 276°
2026-04-21 23:08 44.93617 -94.07248 23985 ft 359 kts 276°
2026-04-21 23:09 44.93773 -94.10778 24478 ft 362 kts 276°
2026-04-21 23:09 44.93929 -94.14333 24957 ft 365 kts 276°
2026-04-21 23:09 44.94085 -94.17915 25432 ft 367 kts 276°
2026-04-21 23:09 44.94242 -94.21527 25871 ft 370 kts 276°
2026-04-21 23:10 44.94398 -94.25171 26316 ft 373 kts 276°
2026-04-21 23:10 44.94554 -94.28836 26754 ft 375 kts 276°
2026-04-21 23:10 44.94711 -94.32530 27190 ft 378 kts 276°
2026-04-21 23:10 44.94867 -94.36254 27582 ft 381 kts 277°
2026-04-21 23:11 44.95021 -94.40006 27982 ft 384 kts 276°
2026-04-21 23:11 44.95174 -94.43780 28383 ft 386 kts 277°
2026-04-21 23:11 44.95329 -94.47584 28761 ft 389 kts 277°
2026-04-21 23:11 44.95485 -94.51410 29114 ft 391 kts 277°
2026-04-21 23:12 44.95640 -94.55214 29468 ft 394 kts 277°
2026-04-21 23:12 44.95796 -94.59084 29818 ft 396 kts 277°
2026-04-21 23:12 44.95951 -94.62987 30159 ft 399 kts 277°
2026-04-21 23:12 44.96105 -94.66900 30476 ft 400 kts 277°
2026-04-21 23:13 44.96258 -94.70835 30812 ft 402 kts 276°
2026-04-21 23:13 44.96410 -94.74789 31153 ft 403 kts 276°
2026-04-21 23:13 44.96561 -94.78733 31571 ft 402 kts 276°
2026-04-21 23:13 44.96710 -94.82669 31853 ft 400 kts 276°
2026-04-21 23:14 44.97002 -94.90493 31949 ft 398 kts 276°
2026-04-21 23:14 44.97290 -94.98309 31942 ft 399 kts 276°
2026-04-21 23:15 44.97571 -95.06136 31942 ft 399 kts 276°
2026-04-21 23:15 44.97846 -95.13931 31942 ft 400 kts 276°
2026-04-21 23:16 44.98117 -95.21777 31945 ft 400 kts 276°
2026-04-21 23:16 44.98383 -95.29643 31944 ft 401 kts 276°
2026-04-21 23:17 44.98643 -95.37504 31944 ft 401 kts 276°
2026-04-21 23:17 44.98899 -95.45378 31953 ft 402 kts 276°
2026-04-21 23:18 44.99149 -95.53278 31942 ft 402 kts 276°
2026-04-21 23:18 44.99393 -95.61124 31941 ft 402 kts 276°
2026-04-21 23:19 44.99633 -95.69022 31943 ft 402 kts 276°
2026-04-21 23:19 44.99868 -95.76947 31941 ft 403 kts 275°
2026-04-21 23:20 45.00097 -95.84855 31942 ft 403 kts 275°
2026-04-21 23:20 45.00320 -95.92767 31946 ft 403 kts 275°
2026-04-21 23:21 45.00538 -96.00644 31961 ft 403 kts 275°
2026-04-21 23:21 45.00750 -96.08555 31956 ft 403 kts 275°
2026-04-21 23:22 45.00958 -96.16488 31966 ft 403 kts 275°
2026-04-21 23:22 45.01160 -96.24405 31963 ft 403 kts 275°
2026-04-21 23:23 45.01357 -96.32328 31961 ft 403 kts 275°
2026-04-21 23:23 45.01547 -96.40205 31958 ft 403 kts 275°
2026-04-21 23:24 45.01732 -96.48121 31953 ft 403 kts 275°
2026-04-21 23:24 45.01912 -96.56035 31951 ft 403 kts 275°
2026-04-21 23:25 45.02087 -96.63956 31946 ft 402 kts 275°
2026-04-21 23:25 45.02227 -96.70525 31945 ft 403 kts 274°
2026-04-21 23:26 45.02392 -96.78447 31952 ft 403 kts 274°
2026-04-21 23:26 45.02545 -96.86065 31950 ft 403 kts 274°
2026-04-21 23:27 45.02699 -96.93985 31955 ft 403 kts 274°
2026-04-21 23:27 45.02847 -97.01900 31951 ft 403 kts 274°
2026-04-21 23:28 45.02989 -97.09774 31955 ft 403 kts 274°
2026-04-21 23:28 45.03126 -97.17695 31950 ft 403 kts 274°
2026-04-21 23:29 45.03259 -97.25625 31950 ft 403 kts 274°
2026-04-21 23:29 45.03385 -97.33536 31946 ft 402 kts 274°
2026-04-21 23:30 45.03506 -97.41452 31940 ft 403 kts 274°
2026-04-21 23:30 45.03621 -97.49374 31942 ft 403 kts 274°
2026-04-21 23:31 45.03734 -97.57253 31940 ft 403 kts 274°
2026-04-21 23:31 45.04326 -97.65097 31936 ft 401 kts 282°
2026-04-21 23:32 45.04871 -97.68971 31818 ft 402 kts 283°
2026-04-21 23:32 45.05417 -97.72878 31936 ft 407 kts 283°
2026-04-21 23:32 45.06521 -97.80758 31940 ft 408 kts 283°
2026-04-21 23:33 45.07623 -97.88621 31930 ft 407 kts 283°
2026-04-21 23:33 45.08715 -97.96449 31927 ft 408 kts 282°
2026-04-21 23:34 45.09807 -98.04323 31921 ft 407 kts 282°
2026-04-21 23:34 45.10893 -98.12200 31917 ft 407 kts 282°
2026-04-21 23:35 45.11973 -98.20072 31915 ft 407 kts 282°
2026-04-21 23:35 45.13043 -98.27940 31909 ft 407 kts 282°
2026-04-21 23:36 45.14106 -98.35804 31907 ft 407 kts 282°
2026-04-21 23:36 45.15165 -98.43691 31905 ft 407 kts 282°
2026-04-21 23:37 45.16218 -98.51577 31904 ft 407 kts 282°
2026-04-21 23:37 45.17266 -98.59462 31906 ft 407 kts 282°
2026-04-21 23:38 45.18308 -98.67352 31907 ft 407 kts 282°
2026-04-21 23:38 45.19345 -98.75247 31906 ft 408 kts 282°
2026-04-21 23:39 45.20374 -98.83128 31910 ft 408 kts 281°
2026-04-21 23:39 45.21404 -98.91056 31908 ft 408 kts 281°
2026-04-21 23:40 45.22427 -98.98975 31912 ft 408 kts 281°
2026-04-21 23:40 45.23444 -99.06899 31909 ft 408 kts 281°
2026-04-21 23:41 45.24450 -99.14780 31909 ft 408 kts 281°
2026-04-21 23:41 45.25456 -99.22702 31908 ft 408 kts 281°
2026-04-21 23:42 45.26458 -99.30638 31910 ft 408 kts 281°
2026-04-21 23:42 45.27454 -99.38579 31902 ft 408 kts 281°
2026-04-21 23:43 45.28438 -99.46465 31905 ft 408 kts 281°
2026-04-21 23:43 45.29423 -99.54415 31898 ft 408 kts 281°
2026-04-21 23:44 45.30401 -99.62350 31900 ft 408 kts 281°
2026-04-21 23:44 45.31375 -99.70294 31895 ft 408 kts 280°
2026-04-21 23:45 45.32822 -99.82193 31888 ft 407 kts 280°
2026-04-21 23:46 45.33779 -99.90128 31883 ft 407 kts 280°
2026-04-21 23:46 45.34731 -99.98060 31883 ft 407 kts 280°
2026-04-21 23:47 45.35678 -100.06000 31875 ft 407 kts 280°
2026-04-21 23:47 45.36613 -100.13895 31866 ft 407 kts 280°
2026-04-21 23:48 45.37550 -100.21853 31868 ft 408 kts 280°
2026-04-21 23:48 45.38481 -100.29807 31863 ft 408 kts 279°
2026-04-21 23:49 45.39406 -100.37764 31867 ft 408 kts 279°
2026-04-21 23:49 45.40328 -100.45742 31863 ft 408 kts 279°
2026-04-21 23:50 45.41239 -100.53673 31868 ft 408 kts 279°
2026-04-21 23:50 45.42148 -100.61641 31867 ft 408 kts 279°
2026-04-21 23:51 45.43052 -100.69616 31867 ft 408 kts 279°
2026-04-21 23:51 45.43951 -100.77589 31870 ft 408 kts 279°
2026-04-21 23:52 45.44843 -100.85567 31872 ft 407 kts 279°
2026-04-21 23:52 45.45724 -100.93493 31871 ft 407 kts 279°
2026-04-21 23:53 45.46606 -101.01478 31869 ft 407 kts 279°
2026-04-21 23:53 45.47482 -101.09461 31867 ft 407 kts 278°
2026-04-21 23:54 45.48351 -101.17434 31875 ft 407 kts 278°
2026-04-21 23:54 45.49210 -101.25369 31868 ft 408 kts 278°
2026-04-21 23:55 45.50071 -101.33378 31883 ft 408 kts 278°
2026-04-21 23:55 45.50924 -101.41368 31880 ft 408 kts 278°
2026-04-21 23:56 45.51773 -101.49367 31886 ft 408 kts 278°
2026-04-21 23:56 45.52616 -101.57368 31890 ft 408 kts 278°
2026-04-21 23:57 45.53449 -101.65331 31886 ft 408 kts 278°
2026-04-21 23:57 45.54281 -101.73341 31888 ft 408 kts 278°
2026-04-21 23:58 45.55107 -101.81351 31882 ft 408 kts 278°
2026-04-21 23:58 45.55930 -101.89383 31887 ft 408 kts 278°
2026-04-21 23:59 45.56745 -101.97400 31883 ft 408 kts 278°
2026-04-21 23:59 45.57556 -102.05426 31884 ft 408 kts 277°
2026-04-22 00:00 45.58355 -102.13403 31878 ft 408 kts 277°
2026-04-22 00:00 45.59156 -102.21446 31889 ft 408 kts 277°
2026-04-22 00:01 45.59949 -102.29481 31875 ft 408 kts 277°
2026-04-22 00:01 45.60736 -102.37512 31877 ft 408 kts 277°
2026-04-22 00:02 45.61520 -102.45560 31872 ft 408 kts 277°
2026-04-22 00:02 45.62291 -102.53549 31873 ft 408 kts 277°
2026-04-22 00:03 45.63063 -102.61592 31873 ft 408 kts 277°
2026-04-22 00:03 45.63828 -102.69634 31870 ft 408 kts 277°
2026-04-22 00:04 45.64588 -102.77686 31857 ft 408 kts 277°
2026-04-22 00:04 45.65342 -102.85737 31857 ft 409 kts 277°
2026-04-22 00:05 45.66088 -102.93762 31855 ft 409 kts 277°
2026-04-22 00:05 45.66832 -103.01828 31846 ft 409 kts 277°
2026-04-22 00:06 45.67571 -103.09895 31849 ft 409 kts 277°
2026-04-22 00:06 45.68304 -103.17977 31848 ft 410 kts 276°
2026-04-22 00:07 45.69032 -103.26061 31843 ft 410 kts 276°
2026-04-22 00:07 45.69751 -103.34109 31846 ft 410 kts 276°
2026-04-22 00:08 45.70469 -103.42205 31840 ft 410 kts 276°
2026-04-22 00:08 45.71181 -103.50312 31836 ft 410 kts 276°
2026-04-22 00:09 45.71887 -103.58419 31833 ft 411 kts 276°
2026-04-22 00:09 45.72590 -103.66546 31827 ft 411 kts 276°
2026-04-22 00:10 45.73285 -103.74660 31831 ft 411 kts 276°
2026-04-22 00:10 45.73971 -103.82740 31825 ft 411 kts 276°
2026-04-22 00:11 45.74657 -103.90879 31830 ft 412 kts 276°
2026-04-22 00:11 45.75337 -103.99026 31830 ft 412 kts 276°
2026-04-22 00:12 45.76011 -104.07171 31828 ft 412 kts 276°
2026-04-22 00:12 45.76681 -104.15332 31826 ft 412 kts 276°
2026-04-22 00:13 45.77340 -104.23444 31826 ft 413 kts 276°
2026-04-22 00:13 45.77999 -104.31618 31834 ft 413 kts 275°
2026-04-22 00:14 45.78652 -104.39798 31831 ft 413 kts 275°
2026-04-22 00:14 45.79299 -104.47984 31829 ft 413 kts 275°
2026-04-22 00:15 45.79834 -104.54798 31831 ft 414 kts 275°
2026-04-22 00:15 45.80471 -104.62996 31832 ft 414 kts 275°
2026-04-22 00:16 45.81105 -104.71226 31824 ft 414 kts 275°
2026-04-22 00:16 45.81728 -104.79390 31824 ft 414 kts 275°
2026-04-22 00:17 45.82349 -104.87610 31822 ft 415 kts 275°
2026-04-22 00:17 45.82966 -104.95851 31816 ft 415 kts 275°
2026-04-22 00:18 45.83576 -105.04079 31811 ft 415 kts 275°
2026-04-22 00:18 45.84181 -105.12325 31804 ft 415 kts 275°
2026-04-22 00:19 45.84779 -105.20569 31804 ft 416 kts 275°
2026-04-22 00:19 45.85369 -105.28774 31800 ft 416 kts 274°
2026-04-22 00:20 45.85958 -105.37045 31797 ft 417 kts 274°
2026-04-22 00:20 45.86541 -105.45327 31793 ft 417 kts 274°
2026-04-22 00:21 45.87119 -105.53621 31791 ft 417 kts 274°
2026-04-22 00:21 45.87691 -105.61917 31792 ft 418 kts 274°
2026-04-22 00:22 45.88254 -105.70175 31792 ft 418 kts 274°
2026-04-22 00:22 45.88816 -105.78487 31794 ft 418 kts 274°
2026-04-22 00:23 45.89371 -105.86813 31789 ft 419 kts 274°
2026-04-22 00:23 45.89921 -105.95143 31790 ft 419 kts 274°
2026-04-22 00:24 45.90465 -106.03478 31782 ft 419 kts 274°
2026-04-22 00:24 45.91003 -106.11825 31777 ft 420 kts 274°
2026-04-22 00:25 45.91533 -106.20133 31771 ft 420 kts 273°
2026-04-22 00:25 45.92061 -106.28499 31770 ft 420 kts 273°
2026-04-22 00:26 45.92583 -106.36886 31766 ft 421 kts 273°
2026-04-22 00:26 45.93099 -106.45267 31764 ft 421 kts 273°
2026-04-22 00:27 45.93605 -106.53593 31762 ft 421 kts 273°
2026-04-22 00:27 45.94109 -106.61975 31759 ft 421 kts 273°
2026-04-22 00:28 45.94607 -106.70370 31759 ft 421 kts 273°
2026-04-22 00:28 45.95099 -106.78771 31755 ft 421 kts 273°
2026-04-22 00:29 45.95585 -106.87177 31750 ft 422 kts 272°
2026-04-22 00:29 45.96062 -106.95522 31750 ft 421 kts 272°
2026-04-22 00:30 45.96535 -107.03920 31744 ft 422 kts 272°
2026-04-22 00:30 45.97004 -107.12340 31742 ft 422 kts 272°
2026-04-22 00:31 45.97466 -107.20752 31739 ft 422 kts 272°
2026-04-22 00:31 45.97921 -107.29158 31733 ft 422 kts 272°
2026-04-22 00:32 45.98371 -107.37582 31729 ft 422 kts 272°
2026-04-22 00:32 45.98811 -107.45943 31722 ft 422 kts 272°
2026-04-22 00:33 45.99249 -107.54374 31722 ft 423 kts 272°
2026-04-22 00:33 45.99681 -107.62810 31716 ft 423 kts 272°
2026-04-22 00:34 46.00107 -107.71262 31720 ft 423 kts 271°
2026-04-22 00:34 46.00525 -107.79668 31728 ft 424 kts 271°
2026-04-22 00:35 46.00940 -107.88141 31726 ft 424 kts 271°
2026-04-22 00:35 46.01349 -107.96611 31727 ft 424 kts 271°
2026-04-22 00:36 46.01754 -108.05087 31733 ft 425 kts 271°
2026-04-22 00:36 46.02156 -108.13574 31735 ft 425 kts 271°
2026-04-22 00:37 46.02551 -108.22013 31758 ft 425 kts 271°
2026-04-22 00:37 46.02941 -108.30494 31768 ft 424 kts 271°
2026-04-22 00:38 46.03324 -108.38965 31759 ft 424 kts 270°
2026-04-22 00:38 46.03618 -108.47454 31774 ft 423 kts 268°
2026-04-22 00:39 46.03404 -108.55886 31762 ft 421 kts 264°
2026-04-22 00:39 46.03120 -108.64312 31754 ft 421 kts 264°
2026-04-22 00:40 46.02851 -108.72724 31745 ft 421 kts 264°
2026-04-22 00:40 46.02565 -108.81077 31737 ft 420 kts 264°
2026-04-22 00:41 46.02266 -108.89481 31650 ft 418 kts 264°
2026-04-22 00:41 46.02116 -108.93645 31187 ft 416 kts 264°
2026-04-22 00:41 46.01963 -108.97807 30465 ft 417 kts 264°
2026-04-22 00:41 46.01809 -109.01979 29718 ft 417 kts 264°
2026-04-22 00:42 46.01655 -109.06127 28991 ft 413 kts 264°
2026-04-22 00:42 46.01502 -109.10235 28321 ft 409 kts 264°
2026-04-22 00:42 46.01349 -109.14299 27643 ft 406 kts 264°
2026-04-22 00:42 46.01194 -109.18336 26975 ft 402 kts 263°
2026-04-22 00:43 46.01040 -109.22337 26316 ft 399 kts 263°
2026-04-22 00:43 46.00885 -109.26310 25678 ft 396 kts 263°
2026-04-22 00:43 46.00730 -109.30250 25044 ft 394 kts 263°
2026-04-22 00:43 46.00574 -109.34176 24422 ft 391 kts 263°
2026-04-22 00:44 46.00418 -109.38069 23811 ft 389 kts 263°
2026-04-22 00:44 46.00263 -109.41896 23188 ft 387 kts 263°
2026-04-22 00:44 46.00106 -109.45755 22500 ft 385 kts 263°
2026-04-22 00:44 45.99949 -109.49588 21869 ft 381 kts 263°
2026-04-22 00:45 45.99792 -109.53383 21237 ft 378 kts 263°
2026-04-22 00:45 45.99636 -109.57139 20617 ft 375 kts 263°
2026-04-22 00:45 45.99480 -109.60863 20026 ft 372 kts 263°
2026-04-22 00:45 45.99322 -109.64568 19435 ft 369 kts 263°
2026-04-22 00:46 45.99166 -109.68238 18873 ft 366 kts 263°
2026-04-22 00:46 45.99009 -109.71877 18335 ft 363 kts 263°
2026-04-22 00:46 45.98855 -109.75443 17789 ft 360 kts 263°
2026-04-22 00:46 45.98698 -109.79026 17195 ft 357 kts 262°
2026-04-22 00:47 45.98542 -109.82564 16962 ft 355 kts 263°
2026-04-22 00:47 45.98383 -109.86129 16908 ft 356 kts 262°
2026-04-22 00:47 45.98231 -109.89597 16903 ft 339 kts 262°
2026-04-22 00:47 45.98087 -109.92897 16905 ft 322 kts 262°
2026-04-22 00:48 45.97949 -109.96021 16912 ft 305 kts 262°
2026-04-22 00:48 45.97813 -109.99037 16913 ft 303 kts 262°
2026-04-22 00:48 45.97668 -110.02083 16912 ft 307 kts 262°
2026-04-22 00:48 45.97523 -110.05156 16914 ft 310 kts 262°
2026-04-22 00:49 45.97376 -110.08270 16916 ft 316 kts 261°
2026-04-22 00:49 45.97232 -110.11372 16918 ft 306 kts 262°
2026-04-22 00:49 45.97093 -110.14397 16926 ft 302 kts 262°
2026-04-22 00:49 45.96951 -110.17426 16933 ft 305 kts 261°
2026-04-22 00:50 45.96862 -110.20471 16957 ft 306 kts 266°
2026-04-22 00:50 45.97025 -110.23543 16720 ft 311 kts 270°
2026-04-22 00:50 45.97224 -110.26641 16465 ft 308 kts 270°
2026-04-22 00:50 45.97421 -110.29683 16276 ft 305 kts 270°
2026-04-22 00:51 45.97607 -110.32689 16089 ft 307 kts 270°
2026-04-22 00:51 45.97794 -110.35752 15900 ft 308 kts 270°
2026-04-22 00:51 45.97979 -110.38813 15704 ft 306 kts 270°
2026-04-22 00:51 45.98164 -110.41859 15502 ft 304 kts 270°
2026-04-22 00:52 45.98345 -110.44905 15306 ft 306 kts 270°
2026-04-22 00:52 45.98525 -110.47955 15106 ft 307 kts 270°
2026-04-22 00:52 45.98706 -110.50992 14911 ft 303 kts 270°
2026-04-22 00:52 45.98885 -110.54010 14719 ft 303 kts 270°
2026-04-22 00:53 45.99063 -110.57028 14528 ft 303 kts 270°
2026-04-22 00:53 45.99239 -110.60053 14328 ft 303 kts 270°
2026-04-22 00:53 45.99413 -110.63073 14130 ft 303 kts 270°
2026-04-22 00:53 45.99588 -110.66087 13979 ft 302 kts 270°
2026-04-22 00:54 45.99761 -110.69090 13915 ft 302 kts 270°
2026-04-22 00:54 45.99932 -110.72062 13653 ft 303 kts 270°
2026-04-22 00:54 46.00104 -110.75093 13290 ft 301 kts 270°
2026-04-22 00:54 46.00276 -110.78090 13095 ft 302 kts 270°
2026-04-22 00:55 46.00445 -110.81103 12883 ft 302 kts 270°
2026-04-22 00:55 46.00615 -110.84119 12682 ft 302 kts 270°
2026-04-22 00:55 46.00954 -110.90121 12282 ft 300 kts 270°
2026-04-22 00:56 46.01120 -110.93117 12076 ft 300 kts 270°
2026-04-22 00:56 46.01285 -110.96115 11872 ft 301 kts 270°
2026-04-22 00:56 46.01448 -110.99121 11675 ft 301 kts 270°
2026-04-22 00:56 46.01607 -111.02082 11466 ft 298 kts 270°
2026-04-22 00:57 46.01772 -111.05079 11283 ft 298 kts 270°
2026-04-22 00:57 46.01929 -111.08023 11071 ft 299 kts 270°
2026-04-22 00:57 46.02090 -111.11002 10908 ft 298 kts 270°
2026-04-22 00:57 46.02081 -111.13939 10738 ft 288 kts 263°
2026-04-22 00:58 46.01978 -111.16783 10571 ft 280 kts 263°
2026-04-22 00:58 46.01883 -111.19539 10395 ft 271 kts 263°
2026-04-22 00:58 46.01793 -111.22206 10229 ft 263 kts 263°
2026-04-22 00:58 46.01704 -111.24795 10062 ft 256 kts 263°
2026-04-22 00:59 46.01613 -111.27369 9960 ft 259 kts 263°
2026-04-22 00:59 46.01285 -111.29854 9951 ft 253 kts 243°
2026-04-22 00:59 46.00525 -111.32114 9952 ft 250 kts 238°
2026-04-22 00:59 45.99669 -111.34288 9951 ft 249 kts 234°
2026-04-22 01:00 45.98731 -111.36343 9949 ft 246 kts 231°
2026-04-22 01:00 45.97604 -111.38187 9720 ft 247 kts 211°
2026-04-22 01:00 45.95988 -111.38991 9240 ft 249 kts 188°
2026-04-22 01:00 45.94274 -111.39228 9147 ft 250 kts 183°
2026-04-22 01:01 45.92555 -111.39317 9206 ft 247 kts 181°
2026-04-22 01:01 45.90892 -111.39171 9451 ft 232 kts 168°
2026-04-22 01:01 45.89486 -111.38106 9362 ft 243 kts 131°
2026-04-22 01:01 45.88713 -111.35810 8943 ft 270 kts 111°
2026-04-22 01:02 45.88093 -111.33200 8616 ft 277 kts 113°
2026-04-22 01:02 45.87389 -111.30734 8421 ft 256 kts 117°
2026-04-22 01:02 45.86660 -111.28509 8026 ft 239 kts 120°
2026-04-22 01:02 45.85836 -111.26466 7436 ft 233 kts 129°
2026-04-22 01:03 45.84829 -111.24704 6950 ft 222 kts 136°
2026-04-22 01:03 45.83789 -111.23201 6550 ft 209 kts 139°
2026-04-22 01:03 45.82752 -111.21844 6154 ft 191 kts 140°
2026-04-22 01:03 45.81811 -111.20613 5778 ft 177 kts 140°
2026-04-22 01:04 45.80926 -111.19478 5418 ft 167 kts 140°
2026-04-22 01:04 45.80070 -111.18344 4950 ft 167 kts 138°
2026-04-22 01:04 45.79247 -111.17243 4605 ft 154 kts 137°
2026-04-22 01:04 45.78753 -111.16560 4466 ft 144 kts 136°
2026-04-22 01:05 45.78075 -111.15656 4457 ft 131 kts 138°
2026-04-22 01:05 45.77320 -111.14622 4833 ft 158 kts 136°
2026-04-22 01:05 45.76312 -111.13118 5849 ft 160 kts 145°
2026-04-22 01:05 45.75275 -111.12696 6629 ft 157 kts 189°
2026-04-22 01:06 45.74594 -111.13108 6920 ft 169 kts 215°
2026-04-22 01:06 45.73875 -111.14603 6999 ft 195 kts 247°
2026-04-22 01:06 45.73732 -111.16526 7139 ft 194 kts 275°
2026-04-22 01:06 45.74191 -111.18305 7167 ft 197 kts 300°
2026-04-22 01:07 45.75139 -111.19733 7190 ft 198 kts 317°
2026-04-22 01:07 45.76224 -111.20920 7322 ft 193 kts 323°
2026-04-22 01:07 45.77345 -111.22010 7309 ft 196 kts 322°
2026-04-22 01:07 45.78416 -111.23188 7362 ft 194 kts 315°
2026-04-22 01:08 45.79394 -111.24501 7448 ft 191 kts 313°
2026-04-22 01:08 45.80353 -111.25824 7465 ft 192 kts 313°
2026-04-22 01:08 45.81439 -111.26934 7453 ft 198 kts 345°
2026-04-22 01:08 45.82768 -111.26643 7392 ft 201 kts 34°
2026-04-22 01:09 45.83582 -111.25025 7069 ft 205 kts 81°
2026-04-22 01:09 45.83401 -111.23124 6696 ft 193 kts 123°
2026-04-22 01:09 45.82470 -111.21780 6076 ft 195 kts 140°
2026-04-22 01:09 45.81546 -111.20339 5602 ft 197 kts 134°
2026-04-22 01:10 45.80608 -111.18974 5192 ft 186 kts 139°
2026-04-22 01:10 45.79696 -111.17801 4891 ft 168 kts 139°
2026-04-22 01:10 45.78858 -111.16709 4502 ft 156 kts 137°
2026-04-22 01:10 45.78174 -111.15769 4450 ft 104 kts 136°
2026-04-22 01:11 45.77812 -111.15264 4456 ft 62 kts 136°
2026-04-22 01:11 45.77617 -111.14995 4461 ft 24 kts 137°
2026-04-22 01:11 45.77473 -111.15006 4461 ft 28 kts 220°